Weather History for Kalispell, MT

Change the Weather History Date:

Wednesday, September 7, 2011

  Actual Average Record
Temperature  
Mean Temperature 63 °F 58 °F  
Max Temperature 86 °F 74 °F 90 °F (1944)
Min Temperature 40 °F 41 °F 27 °F (1992)
Degree Days  
Heating Degree Days 2 8  
Month to date heating degree days 50 48  
Since 1 July heating degree days 196 218  
Cooling Degree Days 0 0  
Month to date cooling degree days 0 1  
Year to date cooling degree days 89 144  
Growing Degree Days 12 (Base 50)    
Moisture  
Dew Point 41 °F    
Average Humidity 54    
Maximum Humidity 92    
Minimum Humidity 16    
Precipitation  
Precipitation 0.00 in 0.05 in 0.27 in (1922)
Month to date precipitation 0.14 0.34  
Year to date precipitation 12.82 11.95  
Snow  
Snow 0.00 in - - ()
Month to date snowfall 0.0  
Year to date snowfall 27.0  
Since 1 July snowfall 0.0  
Snow Depth 0.00 in    
Sea Level Pressure  
Sea Level Pressure 30.23 in    
Wind  
Wind Speed 2 mph (NNE)    
Max Wind Speed 8 mph    
Max Gust Speed 10 mph    
Visibility 10 miles    
Events      
T = Trace of Precipitation, MM = Missing Value Source: NWS Daily Summary

Daily Weather History Graph

Daily Weather History Graph

Search for Another Location

Airport:

Trip Planner

Search our weather history database for the weather conditions in past years. The results will help you decide how hot, cold, wet, or windy it might be!

Date:

Astronomy

Sep. 07, 2011 Rise Set
Actual Time 7:02 AM MDT 8:06 PM MDT
Civil Twilight 6:30 AM MDT 8:38 PM MDT
Nautical Twilight 5:52 AM MDT 9:16 PM MDT
Astronomical Twilight 5:11 AM MDT 9:57 PM MDT
Moon 5:43 PM MDT (9/7) 2:03 AM MDT (9/7)
Length of Visible Light 14h 07m
Length of Day
13h 03m
Waxing Gibbous, 80% of the Moon is Illuminated
Sep 7
Waxing Gibbous
Sep 12
Full
Sep 20
Last Quarter
Sep 27
New
Oct 3
First Quarter

Hourly Weather History & Observations

Time (MDT) Temp. Windchill Dew Point Humidity Pressure Visibility Wind Dir Wind Speed Gust Speed Precip Events Conditions
12:55 AM 48.9 °F - 41.0 °F 74% 30.20 in 10.0 mi Calm Calm - N/A   Clear
1:55 AM 46.0 °F - 41.0 °F 83% 30.21 in 10.0 mi Calm Calm - N/A   Clear
2:55 AM 44.6 °F - 39.2 °F 81% 30.24 in 10.0 mi Calm Calm - N/A   Clear
3:55 AM 44.1 °F 42.5 °F 39.0 °F 82% 30.22 in 10.0 mi NW 3.5 mph - N/A   Clear
4:55 AM 39.9 °F 37.8 °F 37.0 °F 89% 30.24 in 10.0 mi WNW 3.5 mph - N/A   Clear
5:55 AM 44.1 °F - 37.9 °F 79% 30.25 in 10.0 mi Calm Calm - N/A   Clear
6:55 AM 43.0 °F 41.3 °F 37.9 °F 82% 30.27 in 10.0 mi NW 3.5 mph - N/A   Clear
7:55 AM 45.0 °F - 39.0 °F 80% 30.30 in 10.0 mi Calm Calm - N/A   Clear
9:55 AM 62.6 °F - 42.8 °F 48% 30.32 in 10.0 mi North 4.6 mph - N/A   Clear
10:55 AM 68.0 °F - 41.0 °F 37% 30.31 in 10.0 mi NE 5.8 mph - N/A   Clear
11:55 AM 72.0 °F - 42.1 °F 34% 30.29 in 10.0 mi NE 4.6 mph - N/A   Clear
12:55 PM 75.9 °F - 42.1 °F 30% 30.27 in 10.0 mi Calm Calm - N/A   Clear
1:55 PM 79.0 °F - 37.9 °F 23% 30.25 in 10.0 mi Calm Calm - N/A   Clear
2:55 PM 82.0 °F - 37.0 °F 20% 30.23 in 10.0 mi Calm Calm - N/A   Clear
3:55 PM 86.0 °F - 35.1 °F 16% 30.20 in 10.0 mi Calm Calm - N/A   Clear
4:55 PM 86.0 °F - 37.0 °F 18% 30.19 in 10.0 mi East 3.5 mph - N/A   Clear
5:55 PM 86.0 °F - 36.0 °F 17% 30.17 in 10.0 mi ESE 3.5 mph - N/A   Clear
6:55 PM 82.9 °F - 46.0 °F 27% 30.17 in 10.0 mi Calm Calm - N/A   Clear
7:55 PM 71.6 °F - 51.8 °F 50% 30.19 in 10.0 mi Calm Calm - N/A   Clear
8:55 PM 60.1 °F - 48.9 °F 67% 30.19 in 10.0 mi North 3.5 mph - N/A   Clear
9:55 PM 55.9 °F - 46.9 °F 72% 30.20 in 10.0 mi Calm Calm - N/A   Clear
10:55 PM 50.0 °F - 44.1 °F 80% 30.20 in 10.0 mi Calm Calm - N/A   Clear
11:55 PM 48.0 °F - 43.0 °F 83% 30.21 in 10.0 mi Calm Calm - N/A   Clear